Regional Weather Roundup
Issued by NWS Goodland, KS

Home | Current Version | Previous Version | Text Only | Print | Product List | Glossary On
Versions: 1 2 3 4 5 6 7 8 9 10 11 12 13 14 15 16 17 18 19 20 21 22 23 24 25 26 27 28 29 30 31 32 33 34 35 36 37 38 39 40 41 42 43 44 45 46 47 48 49 50
000
ASUS43 KGLD 112059
RWRGLD

GOODLAND FORECAST AREA HOURLY WEATHER ROUNDUP
NATIONAL WEATHER SERVICE GOODLAND KS
300 PM MDT FRI JUL 11 2014

...OFFICIAL OBSERVATIONS...

CITY           SKY/WX    TMP DP  RH WIND       PRES   REMARKS
GOODLAND KS    MOSUNNY   97  52  21 S21G28    29.97F
HILL CITY KS   SUNNY    100  51  19 S20G28    29.94F
IMPERIAL NEB   SUNNY     92  68  45 NE18      29.98F
MCCOOK NEB     SUNNY     96  66  37 E12       29.93F
AKRON CO       MOSUNNY   87  59  38 E9G20     30.06F
BURLINGTON CO  SUNNY     95  52  23 VRB3      30.00F
LIMON CO       SUNNY     89  55  31 NE12      30.10F
$$

...UNOFFICIAL OBSERVATIONS...

CITY           SKY/WX    TMP DP  RH WIND       PRES   REMARKS
COLBY KS       SUNNY     99  59  26 SE15G24   29.97F
GOVE KS          N/A     96  32  10 CALM        N/A
LENORA KS        N/A     99  32   9 MISG        N/A
NORTON KS      SUNNY    100  43  14 S15G24    29.93S
SHARON SPRINGS   N/A    100  53  20 S20G30      N/A
WAKEENEY KS      N/A     99  48  17 MISG        N/A
YUMA CO          N/A     88  63  42 CALM        N/A
$$



USA.gov is the U.S. government's official web portal to all federal, state and local government web resources and services.